Regional Weather Roundup
Issued by NWS

Home | Current Version | Previous Version | Text Only | Print | Product List | Glossary On
Versions: 1 2 3 4 5 6 7 8 9 10 11 12 13 14 15 16 17 18 19 20 21 22 23 24 25 26 27 28 29 30 31 32 33 34 35 36 37 38 39 40 41 42 43 44 45 46 47 48 49 50
000
ASUS43 KLOT 102012
RWRIL

ILLINOIS REGIONAL WEATHER ROUNDUP
NATIONAL WEATHER SERVICE CHICAGO/ROMEOVILLE IL
200 PM CST SAT DEC 10 2016

NOTE: "FAIR" INDICATES FEW OR NO CLOUDS BELOW 12,000 FEET WITH NO
SIGNIFICANT WEATHER AND/OR OBSTRUCTIONS TO VISIBILITY.

* THESE STATIONS ARE NOT UNDER NWS QUALITY CONTROL. THEY ALSO MAY NOT
  REPORT WEATHER SUCH AS PRECIPITATION OR FOG.

ILZ001-002-007-009-015-016-024-102100-
NORTHWEST ILLINOIS

CITY           SKY/WX    TMP DP  RH WIND       PRES   REMARKS
MOLINE         LGT SNOW  25  16  68 S8        30.40F WCI  16
STERLING*      FLURRIES  24  16  71 S7        30.41F WCI  16
SAVANNA*       LGT SNOW  24  16  72 SE6       30.40F WCI  17
$$

ILZ003-004-008-010-011-017-018-102100-
NORTH CENTRAL ILLINOIS

CITY           SKY/WX    TMP DP  RH WIND       PRES   REMARKS
ROCKFORD       CLOUDY    22  13  68 S7        30.42F WCI  13
FREEPORT*      CLOUDY    21  16  79 S7        30.40F WCI  12
ROCHELLE*      CLOUDY    23  17  78 S7        30.41F WCI  14
DE KALB*       CLOUDY    22  16  78 S8        30.40F WCI  12
$$

ILZ005-006-012>014-019>023-102100-
NORTHEAST ILLINOIS

CITY           SKY/WX    TMP DP  RH WIND       PRES   REMARKS
CHICAGO-OHARE  CLOUDY    23  13  65 W9        30.42F WCI  13
CHICAGO-MIDWAY CLOUDY    25  13  60 SW8       30.44F WCI  16
AURORA         CLOUDY    24  15  68 SW5       30.42F WCI  18
LANSING*       CLOUDY    24  16  71 SW6       30.45F WCI  17
JOLIET*        CLOUDY    26  15  65 CALM      30.44F
WAUKEGAN       CLOUDY    23  13  65 SW8       30.40F WCI  14
DUPAGE AIRPORT CLOUDY    23  12  62 SW7       30.41F WCI  15
KANKAKEE*      CLOUDY    26  15  63 CALM      30.46F
WHEELING       CLOUDY    23  12  62 W6        30.44F WCI  16
MORRIS*        CLOUDY    26  15  65 SE5       30.42F WCI  20
ROMEOVILLE*    CLOUDY    23  18  79 NW5       30.43F WCI  17
NORTHERLY ISL    N/A     24  13  62 W6          N/A  WCI  17
$$

LMZ740>746-102100-
SOUTHERN LAKE MICHIGAN

STATION/POSITION SKY/WX   TEMP    WIND        PRES    VSBY  WAVE
                          AIR SEA DIR/SP/G                  HT/PER
                          (F)     (DEG/KT/KT) (MB)    (MI)  (FT/S)
BURNHAM HARBOR             25     240/  7/ 10   N/A
CALUMET HARBOR             24     200/  6/  9 1030.1F
BURNS HARBOR               25     220/  5/ 10 1031.2F
$$

ILZ025>027-034>036-040-047-049-050-058-095>099-102100-
WEST-CENTRAL ILLINOIS

CITY           SKY/WX    TMP DP  RH WIND       PRES   REMARKS
QUINCY         CLOUDY    29  14  53 SE14      30.37F WCI  18
GALESBURG*     LGT SNOW  25  17  72 S5        30.39F WCI  19
MACOMB*        FLURRIES  26  17  68 SE12      30.42F WCI  16
JACKSONVILLE*  CLOUDY    28  13  52 SE9       30.41F WCI  20
PITTSFIELD*    CLOUDY    30  17  59 SE10      30.39F WCI  21
$$

ILZ028>032-037-038-041>044-048-051>054-059>061-102100-
CENTRAL ILLINOIS

CITY           SKY/WX    TMP DP  RH WIND       PRES   REMARKS
PONTIAC        CLOUDY    28  17  63 S7        30.44F WCI  20
BLOOMINGTON    CLOUDY    26  16  65 S12       30.43F WCI  16
DECATUR        CLOUDY    28  15  58 S12       30.44F WCI  18
PEORIA         CLOUDY    27  13  55 S12       30.43F WCI  17
LACON*         CLOUDY    26  14  60 SE5       30.42F WCI  20
LINCOLN*       CLOUDY    28  14  54 SE8       30.43F WCI  20
SPRINGFIELD    CLOUDY    30  14  51 SE9       30.43F WCI  22
TAYLORVILLE    CLOUDY    29  15  57 CALM      30.43F
$$

ILZ033-039-045-046-055>057-062-063-102100-
EAST-CENTRAL ILLINOIS

CITY           SKY/WX    TMP DP  RH WIND       PRES   REMARKS
CHAMPAIGN      CLOUDY    28  16  60 S10       30.44F WCI  19
RANTOUL*       CLOUDY    29  18  63 S8        30.44F WCI  21
MATTOON        CLOUDY    28  15  58 SE9       30.44F WCI  19
PARIS*         CLOUDY    28  19  67 SE7       30.47F WCI  21
$$

ILZ079-100>102-102100-
SOUTHWEST ILLINOIS

CITY           SKY/WX    TMP DP  RH WIND       PRES   REMARKS
ALTON          CLOUDY    32  19  59 S12       30.42F WCI  23
BELLEVILLE     CLOUDY    35  17  48 SE9       30.41F WCI  27
CAHOKIA*       CLOUDY    34  16  47 S9        30.42F WCI  27
SPARTA*        CLOUDY    32  19  57 SE12      30.43F WCI  23
$$

ILZ064>066-069>071-074>076-080>082-084>086-088>090-092>094-102100-
SOUTH-CENTRAL ILLINOIS

CITY           SKY/WX    TMP DP  RH WIND       PRES   REMARKS
CARBONDALE     CLOUDY    34  19  54 S12       30.46F WCI  25
CAIRO*         SUNNY     38  18  44 S8        30.47F WCI  32
EFFINGHAM*     CLOUDY    31  18  58 SE7       30.47F WCI  24
MARION         PTSUNNY   36  18  48 S12       30.48F WCI  27
CENTRALIA*     CLOUDY    34  21  59 SE7       30.44F WCI  28
SALEM*         CLOUDY    34  18  52 SE7       30.45F WCI  28
METROPOLIS*    PTSUNNY   38  17  43 SE3       30.47F
$$

ILZ067-068-072-073-078-083-087-091-102100-
SOUTHEAST ILLINOIS

CITY           SKY/WX    TMP DP  RH WIND       PRES   REMARKS
LAWRENCEVILLE  PTSUNNY   30  16  56 S6        30.49F WCI  24
FLORA*         CLOUDY    32  18  56 S7        30.49S WCI  26
FAIRFIELD*     CLOUDY    33  19  57 CALM      30.47F
HARRISBURG*    CLOUDY    34  19  54 S7        30.48F WCI  28
ROBINSON*      CLOUDY    29  18  63 SE7       30.49F WCI  22
CARMI*         CLOUDY    33  20  58 SE5       30.48F WCI  29
$$

ABBREVIATIONS USED IN REMARKS
   TC - TEMPERATURE IN CELSIUS
  WCI - WIND CHILL INDEX
   HX - HEAT INDEX
  VSB - VISIBILITY
$$




USA.gov is the U.S. government's official web portal to all federal, state and local government web resources and services.